EW2971 Weather Reports


time (UTC)temp
C
wind
direction
speed
KPH
gust
KPH
rain 1hr
cm
rain 24hr
cm
rain mn
cm
humidity
%
barometer
mb
20260502152047 12 255 0.0 6.4 0.00 0.00 0.00 42 1021.6
20260502151554 12 267 1.6 6.4 0.00 0.00 0.00 42 1021.5
20260502151043 12 289 1.6 6.4 0.00 0.00 0.00 42 1021.5
20260502150543 12 0 3.2 8.0 0.00 0.00 0.00 40 1021.5
20260502130544 2 0 0.0 0.0 0.00 0.00 0.00 87 1021.9
20260502130110 2 0 0.0 0.0 0.00 0.00 0.00 88 1021.9
20260502123543 1 0 0.0 0.0 0.00 0.00 0.00 89 1021.7
20260502123121 0 0 0.0 0.0 0.00 0.00 0.00 89 1021.7
20260502122543 0 0 0.0 0.0 0.00 0.00 0.00 89 1021.7
20260502122044 0 0 0.0 0.0 0.00 0.00 0.00 89 1021.7
20260502121549 0 0 0.0 0.0 0.00 0.00 0.00 88 1021.6
20260502121045 0 0 0.0 0.0 0.00 0.00 0.00 88 1021.6
20260502120545 0 0 0.0 0.0 0.00 0.00 0.00 88 1021.5
20260502120109 0 0 0.0 0.0 0.00 0.00 0.00 88 1021.6
20260502115544 0 0 0.0 0.0 0.00 0.00 0.00 87 1021.6
20260502115043 0 0 0.0 0.0 0.00 0.00 0.00 87 1021.6
20260502114555 0 0 0.0 0.0 0.00 0.00 0.00 86 1021.6
20260502114042 0 0 0.0 0.0 0.00 0.00 0.00 85 1021.4
20260502113543 0 0 0.0 0.0 0.00 0.00 0.00 85 1021.4
20260502113051 0 0 0.0 0.0 0.00 0.00 0.00 85 1021.5
20260502112542 0 0 0.0 0.0 0.00 0.00 0.00 85 1021.4
20260502112044 0 0 0.0 0.0 0.00 0.00 0.00 85 1021.4
20260502111546 0 0 0.0 0.0 0.00 0.00 0.00 86 1021.3
20260502111047 0 0 0.0 0.0 0.00 0.00 0.00 86 1021.3
20260502110544 0 0 0.0 0.0 0.00 0.00 0.00 85 1021.3
20260502110052 0 0 0.0 0.0 0.00 0.00 0.00 84 1021.3
20260502105543 0 0 0.0 0.0 0.00 0.00 0.00 84 1021.3
20260502105044 0 0 0.0 0.0 0.00 0.00 0.00 84 1021.2
20260502104550 0 0 0.0 0.0 0.00 0.00 0.00 84 1021.3
20260502104044 0 0 0.0 0.0 0.00 0.00 0.00 83 1021.3
20260502103543 1 0 0.0 0.0 0.00 0.00 0.00 84 1021.2
20260502103054 1 0 0.0 0.0 0.00 0.00 0.00 84 1021.2
20260502102544 0 0 0.0 0.0 0.00 0.00 0.00 83 1021.1
20260502102043 1 0 0.0 0.0 0.00 0.00 0.00 83 1021.1
20260502101558 1 0 0.0 0.0 0.00 0.00 0.00 84 1021.0
20260502101048 1 0 0.0 0.0 0.00 0.00 0.00 84 1020.9
20260502100543 1 0 0.0 0.0 0.00 0.00 0.00 82 1020.9
20260502091043 2 0 0.0 0.0 0.00 0.00 0.00 77 1020.6
20260502090544 2 0 0.0 0.0 0.00 0.00 0.00 76 1020.7
20260502071041 2 0 0.0 0.0 0.00 0.00 0.00 72 1020.8
20260502070544 3 0 0.0 0.0 0.00 0.00 0.00 72 1020.8
20260502070052 3 0 0.0 0.0 0.00 0.00 0.00 71 1020.9
20260502065545 3 0 0.0 0.0 0.00 0.00 0.00 71 1020.9
20260502065043 3 0 0.0 0.0 0.00 0.00 0.00 71 1020.8
20260502064551 3 0 0.0 0.0 0.00 0.00 0.00 71 1020.9
20260502064043 3 0 0.0 0.0 0.00 0.00 0.00 71 1020.9
20260502063544 3 0 0.0 0.0 0.00 0.00 0.00 71 1020.9
20260502063103 3 0 0.0 0.0 0.00 0.00 0.00 69 1020.9
20260502062543 3 0 0.0 0.0 0.00 0.00 0.00 70 1020.8
20260502062048 3 0 0.0 0.0 0.00 0.00 0.00 70 1020.8
20260502061549 3 0 0.0 0.0 0.00 0.00 0.00 71 1021.0
20260502061047 3 0 0.0 0.0 0.00 0.00 0.00 71 1020.9
20260502060544 3 0 0.0 0.0 0.00 0.00 0.00 70 1020.7
20260502060053 3 0 0.0 0.0 0.00 0.00 0.00 70 1020.8
20260502055544 3 0 0.0 0.0 0.00 0.00 0.00 69 1020.8
20260502055045 3 0 0.0 0.0 0.00 0.00 0.00 68 1020.8
20260502054552 4 0 0.0 0.0 0.00 0.00 0.00 67 1020.7
20260502054045 4 0 0.0 0.0 0.00 0.00 0.00 65 1020.6
20260502053545 4 0 0.0 0.0 0.00 0.00 0.00 64 1020.6
20260502053050 4 0 0.0 0.0 0.00 0.00 0.00 64 1020.7
20260502052543 4 0 0.0 0.0 0.00 0.00 0.00 64 1020.6
20260502052045 5 0 0.0 1.6 0.00 0.00 0.00 64 1020.6
20260502051552 5 0 0.0 1.6 0.00 0.00 0.00 63 1020.6
20260502051043 5 0 0.0 1.6 0.00 0.00 0.00 64 1020.6
20260502050542 5 203 1.6 1.6 0.00 0.00 0.00 64 1020.5
20260502050050 5 219 1.6 1.6 0.00 0.00 0.00 63 1020.5
20260502045542 5 205 1.6 1.6 0.00 0.00 0.00 62 1020.5
20260502045043 5 203 1.6 3.2 0.00 0.00 0.00 61 1020.4
20260502044550 6 207 1.6 3.2 0.00 0.00 0.00 59 1020.4
20260502044044 6 217 0.0 0.0 0.00 0.00 0.00 53 1020.4
20260502043543 6 0 0.0 0.0 0.00 0.00 0.00 53 1020.4
20260502043103 6 0 0.0 0.0 0.00 0.00 0.00 53 1020.4
20260502042543 6 0 0.0 0.0 0.00 0.00 0.00 53 1020.3
20260502042042 6 0 0.0 0.0 0.00 0.00 0.00 53 1020.3
20260502041554 7 0 0.0 0.0 0.00 0.00 0.00 53 1020.3
20260502041043 7 0 0.0 0.0 0.00 0.00 0.00 52 1020.3
20260502040543 7 0 0.0 0.0 0.00 0.00 0.00 52 1020.3
20260502040103 7 0 0.0 0.0 0.00 0.00 0.00 50 1020.2
20260502035542 7 0 0.0 0.0 0.00 0.00 0.00 51 1020.1
20260502035044 7 0 0.0 0.0 0.00 0.00 0.00 51 1020.2
20260502034551 7 0 0.0 0.0 0.00 0.00 0.00 51 1020.2
20260502034042 7 0 0.0 0.0 0.00 0.00 0.00 51 1020.2
20260502033544 7 0 0.0 0.0 0.00 0.00 0.00 51 1020.1
20260502033052 7 0 0.0 0.0 0.00 0.00 0.00 51 1020.2
20260502032544 7 0 0.0 0.0 0.00 0.00 0.00 49 1020.1
20260502032044 7 0 0.0 0.0 0.00 0.00 0.00 48 1020.1
20260502031551 7 0 0.0 0.0 0.00 0.00 0.00 48 1020.1
20260502031042 7 0 0.0 0.0 0.00 0.00 0.00 47 1020.1
20260502030544 7 0 0.0 0.0 0.00 0.00 0.00 47 1020.1
20260502030049 7 0 0.0 0.0 0.00 0.00 0.00 46 1020.0
20260502025545 8 0 0.0 0.0 0.00 0.00 0.00 46 1019.9
20260502025043 8 0 0.0 0.0 0.00 0.00 0.00 45 1019.8
20260502024607 8 0 0.0 0.0 0.00 0.00 0.00 46 1019.8
20260502024043 8 0 0.0 0.0 0.00 0.00 0.00 44 1019.8
20260502023544 8 0 0.0 0.0 0.00 0.00 0.00 44 1019.8
20260502023053 8 0 0.0 0.0 0.00 0.00 0.00 45 1019.7
20260502022543 9 0 0.0 0.0 0.00 0.00 0.00 43 1019.7
20260502022043 9 0 0.0 0.0 0.00 0.00 0.00 43 1019.6
20260502021555 10 0 0.0 0.0 0.00 0.00 0.00 42 1019.5
20260502021043 10 0 0.0 3.2 0.00 0.00 0.00 41 1019.5
20260502020544 10 0 0.0 3.2 0.00 0.00 0.00 40 1019.3
20260502020052 10 0 0.0 3.2 0.00 0.00 0.00 40 1019.4
20260502015544 10 51 0.0 1.6 0.00 0.00 0.00 39 1019.3
20260502015043 10 55 0.0 3.2 0.00 0.00 0.00 40 1019.2
20260502014549 10 0 0.0 3.2 0.00 0.00 0.00 39 1019.2
20260502014044 10 75 0.0 3.2 0.00 0.00 0.00 39 1019.0
20260502013543 10 0 0.0 1.6 0.00 0.00 0.00 40 1019.1
20260502013051 10 0 0.0 1.6 0.00 0.00 0.00 39 1019.0
20260502012543 11 360 0.0 1.6 0.00 0.00 0.00 39 1018.9
20260502012043 11 0 0.0 4.8 0.00 0.00 0.00 38 1018.9
20260502011553 11 0 0.0 8.0 0.00 0.00 0.00 37 1018.8
20260502011041 11 44 0.0 8.0 0.00 0.00 0.00 38 1018.8
20260502010544 11 53 1.6 6.4 0.00 0.00 0.00 37 1018.8
20260502010100 11 55 0.0 6.4 0.00 0.00 0.00 37 1018.7
20260502005541 11 0 0.0 6.4 0.00 0.00 0.00 36 1018.7
20260502005044 11 0 1.6 12.9 0.00 0.00 0.00 35 1018.7
20260502004600 12 243 3.2 12.9 0.00 0.00 0.00 34 1018.6
20260502004045 12 161 1.6 9.7 0.00 0.00 0.00 35 1018.6
20260502003547 12 0 1.6 4.8 0.00 0.00 0.00 35 1018.5
20260502003049 12 342 0.0 11.3 0.00 0.00 0.00 34 1018.5
20260502002544 12 13 1.6 11.3 0.00 0.00 0.00 33 1018.3
20260502002044 12 39 1.6 6.4 0.00 0.00 0.00 34 1018.3
20260502001552 12 25 1.6 6.4 0.00 0.00 0.00 32 1018.3
20260502001044 13 32 1.6 12.9 0.00 0.00 0.00 32 1018.3
20260502000544 13 285 0.0 12.9 0.00 0.00 0.00 33 1018.3
20260502000053 13 67 3.2 9.7 0.00 0.00 0.00 32 1018.4
20260501235543 13 40 1.6 9.7 0.00 0.00 0.00 32 1018.2
20260501235044 13 320 1.6 9.7 0.00 0.00 0.00 32 1018.3
20260501234550 13 24 0.0 9.7 0.00 0.00 0.00 32 1018.3
20260501234041 13 0 1.6 11.3 0.00 0.00 0.00 31 1018.2
20260501233543 13 46 3.2 12.9 0.00 0.00 0.00 31 1018.2
20260501233100 13 52 3.2 12.9 0.00 0.00 0.00 31 1018.1
20260501232543 13 7 4.8 12.9 0.00 0.00 0.00 30 1018.2
20260501232047 14 321 0.0 8.0 0.00 0.00 0.00 32 1018.2
20260501231558 13 40 1.6 17.7 0.00 0.00 0.00 31 1018.1
20260501231044 13 0 1.6 17.7 0.00 0.00 0.00 30 1018.1
20260501230545 14 35 3.2 17.7 0.00 0.00 0.00 30 1018.1
20260501230059 14 50 3.2 12.9 0.00 0.00 0.00 32 1018.1
20260501225544 14 64 1.6 17.7 0.00 0.00 0.00 32 1018.1
20260501225045 14 45 1.6 17.7 0.00 0.00 0.00 30 1018.0
20260501224555 14 293 3.2 12.9 0.00 0.00 0.00 31 1018.1
20260501224044 14 0 1.6 16.1 0.00 0.00 0.00 32 1018.1
20260501223542 14 44 4.8 16.1 0.00 0.00 0.00 32 1018.2
20260501223103 14 37 4.8 12.9 0.00 0.00 0.00 34 1018.2
20260501222542 14 24 3.2 9.7 0.00 0.00 0.00 31 1018.1
20260501222044 14 281 4.8 9.7 0.00 0.00 0.00 31 1018.1
20260501221555 14 285 0.0 14.5 0.00 0.00 0.00 33 1017.9
20260501221043 14 0 3.2 16.1 0.00 0.00 0.00 31 1017.9
20260501220543 14 40 3.2 16.1 0.00 0.00 0.00 31 1017.8
20260501220052 14 350 1.6 16.1 0.00 0.00 0.00 31 1017.9
20260501215543 14 349 3.2 16.1 0.00 0.00 0.00 32 1018.0
20260501215044 14 56 4.8 11.3 0.00 0.00 0.00 30 1017.9
20260501214551 15 289 1.6 9.7 0.00 0.00 0.00 33 1017.8
20260501214043 14 32 1.6 9.7 0.00 0.00 0.00 33 1017.9
20260501213545 14 34 1.6 12.9 0.00 0.00 0.00 34 1017.9
20260501213052 14 66 1.6 12.9 0.00 0.00 0.00 32 1017.9
20260501212543 15 38 3.2 12.9 0.00 0.00 0.00 32 1017.9
20260501212045 14 41 1.6 8.0 0.00 0.00 0.00 36 1018.0
20260501211553 14 36 1.6 8.0 0.00 0.00 0.00 35 1018.1
20260501211043 14 75 1.6 12.9 0.00 0.00 0.00 35 1018.0
20260501210541 14 8 4.8 12.9 0.00 0.00 0.00 35 1018.0
20260501210058 14 17 3.2 11.3 0.00 0.00 0.00 36 1018.1
20260501205545 14 0 1.6 9.7 0.00 0.00 0.00 36 1018.0
20260501205042 13 44 4.8 11.3 0.00 0.00 0.00 38 1018.2
20260501204553 13 27 1.6 11.3 0.00 0.00 0.00 36 1018.2
20260501204042 14 271 3.2 11.3 0.00 0.00 0.00 35 1018.3
20260501203544 14 30 3.2 11.3 0.00 0.00 0.00 36 1018.2
20260501203054 14 251 4.8 11.3 0.00 0.00 0.00 37 1018.3
20260501202544 14 264 3.2 20.9 0.00 0.00 0.00 37 1018.3
20260501202041 14 262 4.8 20.9 0.00 0.00 0.00 40 1018.4
20260501201552 14 1 3.2 20.9 0.00 0.00 0.00 38 1018.4
20260501201044 14 16 3.2 20.9 0.00 0.00 0.00 39 1018.5
20260501200547 15 41 4.8 20.9 0.00 0.00 0.00 43 1018.5
20260501200056 14 283 4.8 17.7 0.00 0.00 0.00 39 1018.4
20260501195546 14 16 3.2 17.7 0.00 0.00 0.00 38 1018.5
20260501195042 14 67 3.2 12.9 0.00 0.00 0.00 40 1018.5
20260501194558 14 63 3.2 14.5 0.00 0.00 0.00 40 1018.4
20260501194043 13 28 3.2 14.5 0.00 0.00 0.00 39 1018.5
20260501193543 13 55 3.2 14.5 0.00 0.00 0.00 41 1018.4
20260501193103 14 72 3.2 9.7 0.00 0.00 0.00 39 1018.3
20260501192543 14 330 3.2 11.3 0.00 0.00 0.00 40 1018.3
20260501192041 13 268 1.6 12.9 0.00 0.00 0.00 45 1018.4
20260501191553 13 242 4.8 12.9 0.00 0.00 0.00 42 1018.5
20260501191041 13 51 4.8 11.3 0.00 0.00 0.00 42 1018.4
20260501190544 13 36 4.8 16.1 0.00 0.00 0.00 40 1018.5
20260501190128 13 299 3.2 16.1 0.00 0.00 0.00 44 1018.6
20260501185541 13 60 1.6 9.7 0.00 0.00 0.00 43 1018.5
20260501185042 13 40 3.2 12.9 0.00 0.00 0.00 45 1018.6
20260501184607 13 305 0.0 12.9 0.00 0.00 0.00 47 1018.5
20260501184044 13 359 3.2 12.9 0.00 0.00 0.00 45 1018.5
20260501183545 12 56 3.2 11.3 0.00 0.00 0.00 44 1018.6
20260501183053 12 342 3.2 11.3 0.00 0.00 0.00 44 1018.6
20260501182542 13 39 1.6 11.3 0.00 0.00 0.00 45 1018.6
20260501182044 13 36 1.6 11.3 0.00 0.00 0.00 46 1018.6
20260501181552 13 46 6.4 11.3 0.00 0.00 0.00 43 1018.7
20260501181041 13 286 3.2 11.3 0.00 0.00 0.00 46 1018.7
20260501180543 13 234 4.8 14.5 0.00 0.00 0.00 45 1018.7
20260501180110 13 32 3.2 14.5 0.00 0.00 0.00 45 1018.8
20260501175544 13 43 3.2 17.7 0.00 0.00 0.00 49 1018.9
20260501175041 12 46 6.4 17.7 0.00 0.00 0.00 48 1018.7
20260501174550 12 44 4.8 20.9 0.00 0.00 0.00 48 1018.8
20260501174043 13 17 4.8 20.9 0.00 0.00 0.00 49 1018.9
20260501173541 13 276 3.2 11.3 0.00 0.00 0.00 47 1018.9
20260501173049 13 67 4.8 11.3 0.00 0.00 0.00 49 1018.9
20260501172544 13 351 1.6 9.7 0.00 0.00 0.00 48 1018.9
20260501172045 12 65 3.2 12.9 0.00 0.00 0.00 52 1018.9
20260501171549 12 48 4.8 12.9 0.00 0.00 0.00 53 1018.9
20260501171044 12 58 4.8 12.9 0.00 0.00 0.00 51 1018.9
20260501170547 12 309 3.2 11.3 0.00 0.00 0.00 52 1018.8
20260501170054 12 71 3.2 20.9 0.00 0.00 0.00 51 1018.9
20260501165544 12 15 6.4 20.9 0.00 0.00 0.00 50 1018.9
20260501165044 12 8 3.2 12.9 0.00 0.00 0.00 54 1018.8
20260501164552 12 13 3.2 12.9 0.00 0.00 0.00 52 1018.8
20260501164044 12 37 4.8 20.9 0.00 0.00 0.00 53 1018.8
20260501163543 12 59 3.2 20.9 0.00 0.00 0.00 54 1018.8
20260501163056 12 70 4.8 14.5 0.00 0.00 0.00 51 1018.8
20260501162544 12 20 3.2 12.9 0.00 0.00 0.00 53 1018.8
20260501162043 11 41 3.2 12.9 0.00 0.00 0.00 54 1018.7
20260501161556 11 16 1.6 11.3 0.00 0.00 0.00 58 1018.7
20260501161044 11 329 4.8 17.7 0.00 0.00 0.00 57 1018.8
20260501160541 11 48 1.6 17.7 0.00 0.00 0.00 58 1018.7
20260501155544 11 0 1.6 14.5 0.00 0.00 0.00 57 1018.6
20260501155044 11 227 3.2 17.7 0.00 0.00 0.00 57 1018.6
20260501154601 11 294 3.2 17.7 0.00 0.00 0.00 58 1018.6
20260501154044 11 287 4.8 17.7 0.00 0.00 0.00 58 1018.6
20260501153544 10 276 3.2 12.9 0.00 0.00 0.00 58 1018.6
20260501153054 10 54 1.6 12.9 0.00 0.00 0.00 59 1018.6
20260501152544 10 222 4.8 12.9 0.00 0.00 0.00 59 1018.5